This demonstration page uses our WeatherBlox Daily Observations layout. Learn more.

41.55636, -103.73856

Hourly Observations for December 12, 2015

Temp ( °F °C ) Dew Point ( °F °C ) Humidity (%) Winds ( mph kmh ) Pressure ( in mb ) Visibility ( mi km ) Precip ( " mm )
12:53 am 00:53 Cloudy 34 1.1 26 -3.3 73 73 Calm 29.83 1010 10 16.0934 0 0
1:53 am 01:53 Cloudy 33 0.6 25 -3.9 72 72 Calm 29.82 1010 10 16.0934 0 0
2:53 am 02:53 Cloudy 33 0.6 25 -3.9 72 72 E 7 11 29.84 1011 10 16.0934 0 0
3:53 am 03:53 Cloudy 33 0.6 25 -3.9 72 72 E 3 6 29.84 1011 10 16.0934 0 0
4:53 am 04:53 Cloudy 32 0 25 -3.9 75 75 E 5 7 29.88 1012 10 16.0934 0 0
5:53 am 05:53 Cloudy 33 0.6 25 -3.9 72 72 Calm 29.9 1013 10 16.0934 0 0
6:53 am 06:53 Cloudy 32 0 25 -3.9 75 75 NE 5 7 29.91 1013 10 16.0934 0 0
7:53 am 07:53 Cloudy 33 0.6 26 -3.3 75 75 NNE 3 6 29.92 1013 10 16.0934 0 0
8:53 am 08:53 Cloudy 34 1.1 27 -2.8 76 76 Calm 29.94 1014 10 16.0934 0 0
9:53 am 09:53 Cloudy with Light Snow 35 1.7 28 -2.2 76 76 Calm 29.96 1015 6 9.65604 0 0.0254
10:21 am 10:21 Cloudy with Light Snow 34 1.1 29 -1.7 82 82 Calm 30.03 1017 2 3.21868 0 0.0254
10:35 am 10:35 Cloudy with Light Snow 35 1.7 29 -1.7 78 78 Calm 30 1016 1.75 2.816345 0 0.0254
10:50 am 10:50 Mostly Cloudy with Scattered Snow Showers 34 1 30 -1 87 87 Calm 30.03 1017 0.75 1.207005 0 0
10:53 am 10:53 Mostly Cloudy with Scattered Snow Showers 33 0.6 30 -1.1 89 89 NNW 3 6 29.96 1015 0.75 1.207005 0 0.0254
11:16 am 11:16 Cloudy with Light Snow 34 1 30 -1 87 87 N 3 6 30.03 1017 0.75 1.207005 0 0
11:28 am 11:28 Cloudy with Light Snow 34 1 30 -1 87 87 NNE 5 7 30 1016 0.75 1.207005 0 0
11:31 am 11:31 Cloudy with Light Snow 34 1.1 31 -0.6 89 89 NE 5 7 30 1016 1 1.60934 0.02 0.508
11:41 am 11:41 Cloudy with Light Snow 34 1.1 31 -0.6 89 89 NE 3 6 30 1016 2 3.21868 0.02 0.508
11:48 am 11:48 Cloudy with Light Snow 34 1 32 0 93 93 NE 3 6 30 1016 1.75 2.816345 0 0
11:53 am 11:53 Cloudy with Light Snow 34 1.1 32 0 92 92 NE 3 6 29.93 1014 1.5 2.41401 0.03 0.762
12:05 pm 12:05 Cloudy with Light Snow 34 1.1 31 -0.6 89 89 NE 6 9 30 1016 2.5 4.02335 0 0.0254
12:18 pm 12:18 Cloudy with Light Snow 34 1 32 0 93 93 ENE 7 11 30 1016 1.5 2.41401 0 0
12:30 pm 12:30 Cloudy with Light Snow 34 1 30 -1 87 87 NE 7 11 30 1016 1 1.60934 0 0
12:37 pm 12:37 Cloudy with Snow 34 1.1 31 -0.6 89 89 NE 6 9 30 1016 0.5 0.80467 0 0.0254
12:53 pm 12:53 Cloudy with Snow 33 0.6 31 -0.6 92 92 NE 8 13 29.91 1013 0.5 0.80467 0.01 0.254
1:00 pm 13:00 Cloudy with Snow 34 1 30 -1 87 87 NE 7 11 29.94 1014 0.5 0.80467 0 0
1:53 pm 13:53 Mostly Cloudy with Snow 33 0.6 31 -0.6 92 92 NNE 9 15 29.92 1013 0.5 0.80467 0.05 1.27
2:12 pm 14:12 Mostly Cloudy with Scattered Snow Showers 34 1 30 -1 87 87 NNE 8 13 29.94 1014 1 1.60934 0 0
2:53 pm 14:53 Mostly Cloudy with Scattered Snow Showers 33 0.6 32 0 96 96 NNE 6 9 29.93 1014 1 1.60934 0.02 0.508
3:00 pm 15:00 Mostly Cloudy with Snow 34 1 32 0 93 93 NNE 5 7 30 1016 0.5 0.80467 0 0
3:12 pm 15:12 Mostly Cloudy with Snow 34 1 32 0 93 93 N 6 9 30 1016 0.25 0.402335 0 0
3:23 pm 15:23 Mostly Cloudy with Snow 33 0.6 32 0 96 96 N 6 9 30 1016 0.5 0.80467 0.02 0.508
3:53 pm 15:53 Mostly Cloudy with Snow 33 0.6 32 0 96 96 N 5 7 29.94 1014 0.5 0.80467 0.05 1.27
4:08 pm 16:08 Cloudy with Light Snow 34 1 32 0 93 93 NNE 3 6 30 1016 0.75 1.207005 0 0
4:33 pm 16:33 Cloudy with Light Snow 33 0.6 32 0 96 96 NNE 5 7 30 1016 1.25 2.011675 0.02 0.508
4:45 pm 16:45 Cloudy with Light Snow 33 0.6 31 -0.6 92 92 NNE 6 9 30 1016 1.75 2.816345 0.02 0.508
4:53 pm 16:53 Cloudy with Light Snow 33 0.6 31 -0.6 92 92 NE 6 9 29.93 1014 2 3.21868 0.02 0.508
5:08 pm 17:08 Cloudy with Light Snow 34 1 30 -1 87 87 NNE 3 6 30 1016 3 4.82802 0 0
5:53 pm 17:53 Cloudy 32 0 30 -1.1 92 92 Calm 29.96 1015 10 16.0934 0.01 0.254
6:23 pm 18:23 Cloudy with Light Snow 32 0 31 -0.6 96 96 NW 7 11 30.03 1017 2.5 4.02335 0 0.0254
6:36 pm 18:36 Cloudy with Light Snow 32 0 30 -1 93 93 NW 6 9 30.03 1017 2.5 4.02335 0 0
6:43 pm 18:43 Cloudy with Light Snow 32 0 31 -0.6 96 96 NW 7 11 30.03 1017 3 4.82802 0 0.0254
6:53 pm 18:53 Cloudy with Light Snow 33 0.6 31 -0.6 92 92 NW 7 11 29.98 1015 3 4.82802 0 0.0254
7:12 pm 19:12 Cloudy with Light Snow 34 1 30 -1 87 87 NNW 5 7 30.03 1017 2.5 4.02335 0 0
7:20 pm 19:20 Cloudy with Light Snow 32 0 30 -1 93 93 NNW 5 7 30.03 1017 2.5 4.02335 0 0
7:31 pm 19:31 Cloudy with Light Snow 32 0 31 -0.6 96 96 NNW 5 7 30.03 1017 4 6.43736 0 0.0254
7:53 pm 19:53 Cloudy 32 0 31 -0.6 96 96 WNW 5 7 29.99 1016 10 16.0934 0 0.0254
8:33 pm 20:33 Cloudy 32 0 31 -0.6 96 96 WNW 5 7 30.03 1017 10 16.0934 0 0
8:53 pm 20:53 Cloudy 32 0 31 -0.6 96 96 WNW 6 9 29.99 1016 10 16.0934 0 0
9:53 pm 21:53 Cloudy 32 0 30 -1.1 92 92 WNW 6 9 29.98 1015 10 16.0934 0 0
10:19 pm 22:19 Cloudy 32 0 30 -1.1 92 92 WNW 3 6 30.03 1017 10 16.0934 0 0
10:53 pm 22:53 Cloudy 31 -0.6 30 -1.1 96 96 NNW 5 7 29.97 1015 10 16.0934 0 0
11:53 pm 23:53 Clear 28 -2.2 26 -3.3 92 92 NW 5 7 29.94 1014 10 16.0934 0 0

Powered by AerisWeather